Wind_Speed
23 24 26 27 29 31 32 33 33 33 32 32 30 29 31 31 34 36 33 27 24 28 28 26 25 26 25 23 22 19 19 29 33 36 33 27 22 19 21 20 21 18 22 22 38 40 37 30 17 38 34 34 43 45
27 28 30 32 33 34 34 35 35 35 34 34 35 35 35 37 35 35 36 33 33 35 30 28 28 30 28 27 25 19 23 29 31 30 29 25 22 18 19 20 19 21 16 26 37 27 36 35 21 18 33 20 33 37
30 32 35 38 40 42 44 45 45 45 44 42 40 38 40 41 39 41 42 39 38 40 35 31 29 29 30 28 25 23 23 33 35 32 32 30 26 22 19 19 18 21 21 25 33 40 43 41 38 34 38 29 21 29
16 17 18 20 23 26 29 31 34 36 39 43 45 47 45 45 48 48 47 45 44 43 40 35 34 33 33 32 28 27 27 33 36 37 35 33 30 26 21 19 21 18 21 20 33 36 45 27 10 27 34 31 29 24
18 21 22 24 25 27 29 31 32 32 33 33 35 38 44 50 51 49 51 52 51 48 48 44 40 38 37 35 33 33 32 36 38 38 38 35 31 29 24 22 21 20 19 23 29 36 43 31 20 6 26 28 32 32
14 16 18 23 24 23 26 30 34 37 38 39 39 37 36 37 41 49 57 54 54 53 53 51 45 42 40 37 34 36 34 35 40 42 43 39 34 33 31 26 20 21 26 25 25 34 39 35 21 20 18 23 33 35
15 16 11 8 11 17 20 24 30 36 39 40 40 41 41 41 41 41 49 49 54 54 52 49 51 47 43 38 34 36 37 34 39 42 43 40 37 37 36 33 23 21 25 29 25 32 36 40 25 18 13 13 14 28
15 11 5 3 2 6 13 20 26 33 36 37 37 38 38 35 37 38 31 28 37 47 51 46 36 47 46 40 38 38 39 39 38 40 44 41 39 40 40 34 26 23 24 30 28 26 35 40 35 26 15 17 15 19
12 8 7 3 5 8 9 7 10 25 33 38 38 35 34 38 37 32 30 26 29 34 42 46 39 34 35 26 36 36 36 37 39 44 44 43 42 42 39 36 29 26 28 27 29 23 27 33 41 35 24 24 21 23
15 16 14 14 16 20 21 27 28 31 42 43 44 43 39 40 38 33 28 27 29 27 34 38 30 28 29 26 27 32 32 34 36 38 42 46 42 39 37 36 36 32 30 29 30 30 26 28 43 48 45 42 31 27
20 23 23 27 20 22 28 30 39 42 44 46 42 38 39 41 35 34 30 30 26 24 32 40 34 24 25 20 19 22 27 28 33 38 44 47 42 35 34 36 37 35 30 28 28 30 32 31 37 41 47 50 45 36
21 27 29 28 26 27 28 29 29 32 35 35 36 34 38 36 34 33 29 27 23 21 35 36 30 26 18 20 22 22 26 30 28 29 36 38 31 33 34 36 39 37 30 28 28 26 30 27 31 36 38 40 42 47
23 26 32 28 27 25 29 32 33 31 29 31 37 36 33 32 30 34 34 25 24 28 26 25 28 25 23 20 24 24 25 26 25 29 30 28 26 30 34 38 37 34 34 31 28 24 28 33 35 37 39 38 36 36
20 24 29 27 30 30 26 30 33 25 19 28 29 20 21 17 22 25 34 27 29 25 25 22 20 20 20 21 28 27 24 24 25 26 24 22 22 23 27 29 28 30 33 32 31 27 35 29 37 40 39 36 36 35
18 20 23 26 27 26 24 25 24 28 27 28 30 26 27 23 27 26 26 25 23 27 27 21 18 18 18 21 24 24 24 25 25 23 16 17 18 24 24 24 23 25 29 30 33 31 39 31 29 34 37 33 36 35
15 17 18 19 23 23 21 21 23 23 23 26 21 17 17 15 17 17 17 15 15 16 18 18 17 18 19 20 20 22 25 24 20 21 10 10 8 9 14 20 21 19 19 20 23 23 35 28 21 26 29 36 37 36
19 17 16 16 17 16 15 17 18 16 16 15 17 19 18 16 15 16 16 15 17 18 18 17 18 18 18 20 21 19 19 19 19 16 13 14 12 12 10 17 22 23 29 23 20 22 26 23 25 24 24 30 30 34
14 15 16 17 15 14 14 15 16 14 11 9 10 14 15 17 16 15 14 13 16 15 14 13 13 13 12 8 10 9 12 16 13 8 8 13 13 13 13 15 17 19 21 22 22 24 27 26 28 31 33 33 33 32
11 10 11 13 14 14 14 15 16 14 14 17 19 19 18 16 14 14 12 17 15 13 11 9 7 10 8 6 11 10 7 9 10 9 12 10 13 11 14 15 16 17 19 19 21 22 28 29 26 26 30 29 26 29
11 11 10 10 11 14 15 16 15 16 15 15 16 15 14 14 12 12 13 15 14 13 12 11 9 8 12 12 12 11 9 13 15 11 9 9 9 9 13 18 17 21 22 19 23 26 26 26 27 30 33 33 32 35
15 13 11 9 10 11 15 16 16 17 16 13 12 12 11 11 17 17 14 14 18 19 15 9 10 11 10 10 11 13 15 17 20 18 15 15 14 12 13 12 11 13 17 16 19 22 26 27 28 29 30 29 29 30
17 17 15 14 14 14 14 13 16 16 14 12 10 9 9 8 8 11 16 15 14 14 12 10 9 10 10 10 11 11 13 16 18 20 21 22 21 23 26 27 25 22 20 18 19 20 21 22 24 26 27 28 30 32
18 16 15 14 15 16 15 13 11 11 9 12 12 9 7 5 6 7 15 19 16 14 13 13 13 13 13 14 16 16 16 17 19 20 20 20 23 24 26 25 24 26 25 25 25 26 27 28 29 30 32 34 35 36
20 19 17 14 13 12 12 10 10 10 10 11 11 10 9 8 8 9 11 14 16 17 18 18 17 17 17 17 17 18 19 20 20 21 22 23 23 23 24 24 25 27 29 29 29 30 31 33 34 35 37 38 39 40
14 12 13 14 13 13 12 11 9 8 6 6 6 6 8 9 10 11 13 14 15 16 16 17 17 17 17 18 18 19 19 19 19 20 21 22 24 24 25 26 28 30 31 32 34 35 36 37 38 39 40 40 41 41
7 8 8 7 7 6 5 4 4 3 3 4 5 5 6 8 10 11 13 14 15 17 18 19 19 20 20 20 21 21 22 22 23 24 25 26 26 26 28 29 31 32 34 36 38 39 40 41 41 42 42 43 44 44
4 4 5 4 4 4 4 5 7 8 8 9 10 11 13 16 18 21 23 25 27 29 30 30 31 31 32 32 32 31 31 30 29 29 30 30 31 32 33 35 37 38 40 41 42 42 42 43 43 44 44 44 45 46
6 7 7 8 9 8 8 9 11 13 15 17 20 23 26 28 31 33 35 37 39 40 41 42 43 43 43 42 42 41 40 39 38 37 36 36 36 37 38 39 39 40 41 42 43 44 44 44 45 45 46 47 48 48
10 12 14 12 9 9 13 17 20 21 24 27 31 33 34 36 38 39 39 39 39 38 37 36 36 35 34 33 33 33 34 36 37 36 35 34 35 37 38 39 41 41 42 42 42 43 44 45 46 47 47 46 45 43
16 18 15 13 16 21 24 26 28 30 32 33 34 35 32 30 29 29 30 31 31 30 29 29 28 27 26 26 27 28 29 30 31 31 31 31 32 34 36 38 39 40 41 42 43 43 43 42 40 39 39 38 37 38
15 15 17 24 27 27 28 29 28 28 29 27 25 25 26 28 31 33 35 33 31 28 26 25 23 22 22 21 21 22 24 26 29 30 31 31 31 31 31 31 32 33 33 34 34 34 34 34 34 35 35 36 35 35
21 26 28 27 25 24 22 23 24 22 21 23 25 28 31 33 36 38 34 28 24 20 19 18 18 17 16 16 15 15 16 17 19 20 22 23 24 25 25 25 25 26 27 28 28 28 29 30 30 30 30 30 30 29
26 23 20 17 17 18 19 18 19 21 23 26 29 32 34 37 38 33 26 22 20 19 16 15 15 15 16 16 17 17 17 16 15 15 15 17 18 19 20 21 22 22 23 23 24 24 24 24 24 24 24 23 23 23
Wind_Direction
260 257 253 249 247 247 247 246 243 242 241 239 234 224 224 224 225 230 241 239 229 206 198 209 213 208 207 207 203 206 218 217 222 224 230 238 243 252 257 258 260 262 231 233 238 243 246 253 222 239 238 234 238 242
262 257 253 250 248 247 244 241 241 239 236 231 225 224 216 215 221 225 227 224 225 228 222 226 220 214 212 215 217 219 218 217 223 224 226 232 242 244 246 253 261 264 274 241 236 236 239 247 273 215 225 244 235 229
274 270 265 260 256 253 250 246 243 241 237 233 230 222 216 217 216 218 226 224 224 230 231 225 218 222 224 221 221 225 219 219 222 225 233 238 247 255 268 272 254 253 299 277 245 242 246 263 271 216 230 233 223 227
270 265 258 252 248 245 243 241 241 240 240 238 233 226 222 214 213 218 223 224 225 229 233 228 227 225 228 227 226 229 223 222 224 231 236 241 246 249 257 274 280 261 273 269 242 231 242 246 237 218 228 240 229 224
275 272 267 262 256 249 244 239 233 228 225 224 222 221 220 221 220 215 216 225 225 227 235 235 232 230 232 232 231 231 226 220 222 227 234 238 243 251 256 266 286 275 267 273 236 226 230 223 253 190 217 231 229 234
305 300 281 263 252 248 247 245 241 236 232 227 220 216 213 214 218 222 218 215 223 227 231 237 238 234 235 234 233 233 227 220 221 227 235 242 245 251 255 261 269 271 264 267 245 228 228 230 229 204 214 234 236 236
334 328 305 284 245 252 254 248 240 232 227 224 222 219 215 214 215 220 222 220 222 224 229 231 236 233 233 234 230 228 225 222 224 229 235 241 245 249 255 261 268 268 272 258 269 230 225 228 226 222 216 228 263 259
345 350 7 344 305 296 281 264 245 231 219 211 209 206 204 204 204 208 213 211 217 223 227 226 227 239 237 237 230 225 225 226 227 232 238 241 242 249 255 261 262 265 267 267 270 238 223 225 230 233 228 264 252 252
16 35 36 20 27 42 27 335 238 209 198 189 182 176 182 188 187 190 198 194 206 214 217 220 216 231 238 234 229 231 231 231 232 233 239 241 244 250 258 263 260 266 266 261 266 267 233 226 234 233 234 256 258 269
53 41 55 85 70 79 75 75 87 126 152 157 160 164 175 174 176 183 193 198 206 213 204 187 194 227 238 241 234 234 235 234 235 239 240 244 245 248 253 259 263 263 255 256 262 267 256 242 240 249 248 251 256 263
56 55 92 92 83 80 91 91 103 118 131 143 154 168 166 164 171 183 194 197 208 207 198 191 192 212 195 200 209 223 231 237 237 241 243 247 250 248 254 255 264 261 252 251 267 266 257 251 245 245 246 247 248 251
76 78 89 101 95 96 97 95 112 120 126 132 143 154 153 162 173 174 181 179 196 179 175 178 180 183 185 200 212 220 229 228 237 239 241 247 246 247 246 254 263 258 244 250 257 263 256 253 258 246 233 240 242 248
107 91 87 82 91 109 106 103 106 111 121 130 137 143 153 160 171 183 176 179 174 172 180 196 207 214 214 207 203 220 218 226 237 238 243 245 246 252 253 255 253 250 248 242 249 247 245 245 248 243 229 230 232 238
108 104 104 99 105 98 99 113 111 101 110 136 133 120 160 166 160 168 173 166 162 160 165 170 182 200 207 212 210 221 228 237 247 253 257 259 253 248 243 246 244 242 241 242 244 254 242 253 239 236 233 232 231 237
108 116 114 115 109 118 122 124 124 138 145 146 147 147 148 140 160 159 167 182 179 192 205 214 209 209 213 213 220 230 235 240 249 262 257 249 244 238 240 238 239 236 236 238 246 245 241 243 254 246 238 245 246 246
114 107 111 117 127 123 128 127 137 147 153 158 156 160 159 139 148 163 170 181 187 189 189 193 203 213 218 223 225 233 240 246 254 245 257 224 233 229 238 234 219 221 234 226 224 228 233 255 252 217 206 237 245 249
120 120 119 121 124 125 129 141 148 149 144 148 154 153 159 162 161 165 170 175 182 192 204 213 225 232 231 228 232 245 256 252 230 244 264 248 267 247 263 234 222 214 220 250 250 232 231 248 243 241 228 234 248 259
114 114 116 120 122 128 131 126 127 127 131 135 153 174 171 165 170 178 182 189 195 202 210 216 218 220 216 213 207 210 232 242 253 270 249 224 234 239 223 226 231 234 245 252 252 240 242 244 247 248 252 257 260 261
122 119 119 122 129 136 136 131 124 111 108 112 107 116 137 150 157 156 144 147 141 142 149 181 221 221 222 215 244 239 240 237 236 253 246 240 224 229 239 240 237 239 246 250 248 237 234 243 251 256 253 251 260 264
117 115 126 144 163 161 153 155 148 131 123 123 124 135 146 152 153 154 162 168 165 178 190 201 195 223 227 230 234 240 257 244 234 238 224 236 240 228 227 227 235 239 238 244 254 249 246 249 254 257 257 256 258 259
87 92 92 113 119 145 170 170 153 147 151 150 144 138 134 150 177 182 172 177 192 204 204 212 215 214 219 229 234 241 246 238 247 246 240 255 255 255 241 247 257 259 252 259 249 247 246 248 250 251 254 255 255 256
121 117 114 112 117 112 111 134 162 174 183 189 185 184 179 176 176 187 193 190 187 186 197 208 220 226 228 231 236 253 258 254 252 254 256 260 267 269 266 267 267 263 259 263 257 254 254 253 254 254 255 257 260 262
113 116 115 117 117 115 116 118 128 145 168 188 193 203 205 209 214 206 199 201 209 221 241 258 266 268 265 264 260 258 261 262 259 261 256 264 269 266 267 267 264 258 253 251 247 245 247 250 252 254 257 260 264 267
87 87 93 98 101 103 108 115 119 121 129 140 149 166 175 180 191 196 208 220 234 249 260 267 270 270 268 266 265 264 264 265 266 265 262 259 259 257 257 255 253 250 248 248 249 250 251 252 255 258 262 265 268 272
74 84 82 89 91 97 96 104 112 130 141 151 165 192 211 218 231 238 240 242 249 254 262 265 265 268 272 273 274 274 273 272 268 265 261 259 258 255 256 255 253 250 249 250 251 252 255 259 262 266 269 274 277 282
62 60 63 63 64 69 71 88 105 142 174 186 202 219 233 245 250 254 257 258 261 264 266 267 268 267 268 269 270 270 271 272 272 272 270 266 261 256 252 250 251 253 253 254 255 257 260 264 267 270 273 276 280 283
44 29 23 21 14 346 316 300 294 286 277 261 254 259 268 279 280 279 278 278 278 278 279 278 276 274 273 272 271 271 270 269 268 267 266 265 261 256 255 254 252 251 252 253 255 258 261 264 267 271 274 277 281 284
341 338 343 338 329 313 298 287 284 283 284 283 282 284 286 287 289 290 290 288 289 289 288 287 286 284 283 282 281 280 279 278 275 272 269 264 260 257 256 253 253 254 256 257 259 262 265 268 272 276 279 282 286 289
318 321 327 320 302 290 297 302 300 297 298 299 301 302 302 300 300 300 298 297 294 292 290 288 285 283 281 278 275 272 269 268 267 266 264 259 256 254 253 253 255 256 259 261 264 268 271 274 276 279 282 285 287 289
313 313 305 298 302 308 310 311 312 313 312 311 310 310 310 312 312 312 311 310 306 301 295 290 288 285 282 278 275 272 269 266 264 263 262 261 260 258 257 258 259 261 263 266 269 272 275 277 279 280 282 283 285 286
292 287 295 305 309 312 314 314 312 312 313 316 317 318 319 321 322 321 320 316 308 300 293 288 284 281 280 279 279 277 273 268 265 265 264 264 264 264 265 266 266 267 269 271 273 275 277 278 279 280 282 284 286 288
290 298 304 308 308 309 310 312 318 319 321 323 325 326 326 327 328 326 324 317 314 310 298 287 283 282 279 276 280 285 286 283 277 272 269 268 268 268 268 269 271 273 275 276 277 278 279 281 282 284 285 286 287 288
299 301 300 303 306 312 317 320 323 324 326 326 327 329 330 332 332 331 327 325 321 318 312 298 288 284 281 279 279 280 282 284 286 284 279 274 271 271 271 273 274 275 277 280 281 282 283 284 285 285 286 286 287 288
Height
5351 5351 5353 5355 5357 5359 5362 5365 5368 5373 5377 5382 5388 5394 5399 5405 5409 5414 5420 5426 5434 5441 5451 5458 5466 5473 5480 5488 5495 5501 5504 5508 5511 5514 5519 5524 5528 5532 5532 5535 5538 5543 5540 5544 5547 5552 5558 5562 5569 5569 5570 5573 5578 5584
5342 5342 5343 5344 5346 5348 5351 5355 5358 5363 5368 5374 5380 5387 5395 5402 5407 5411 5417 5425 5432 5437 5446 5452 5460 5467 5474 5481 5487 5493 5499 5502 5506 5510 5515 5518 5522 5525 5526 5527 5531 5532 5535 5536 5541 5547 5548 5551 5550 5555 5561 5566 5569 5576
5332 5331 5331 5331 5333 5335 5338 5342 5346 5351 5357 5364 5371 5378 5387 5395 5402 5407 5411 5420 5427 5432 5440 5447 5455 5463 5469 5476 5483 5489 5494 5497 5501 5505 5510 5513 5515 5520 5521 5523 5526 5527 5526 5527 5533 5540 5543 5546 5549 5547 5555 5561 5561 5569
5324 5323 5322 5321 5322 5323 5326 5329 5333 5338 5344 5351 5359 5368 5376 5385 5393 5401 5405 5413 5422 5428 5434 5443 5450 5457 5463 5469 5477 5483 5488 5491 5495 5499 5503 5506 5510 5514 5517 5519 5518 5524 5524 5522 5523 5530 5536 5548 5544 5547 5550 5555 5557 5561
5318 5316 5315 5314 5314 5315 5317 5320 5323 5328 5334 5340 5347 5356 5365 5375 5382 5390 5399 5406 5413 5425 5428 5436 5445 5452 5457 5463 5470 5475 5480 5486 5489 5493 5496 5500 5504 5508 5512 5515 5515 5515 5515 5516 5518 5523 5531 5543 5544 5540 5545 5550 5552 5556
5313 5308 5305 5303 5303 5305 5306 5308 5312 5316 5322 5330 5339 5348 5356 5365 5373 5378 5389 5399 5408 5416 5423 5428 5438 5445 5450 5456 5462 5467 5473 5478 5482 5486 5489 5493 5499 5503 5506 5509 5513 5513 5513 5513 5515 5517 5525 5534 5538 5537 5539 5543 5546 5549
5307 5302 5299 5297 5296 5297 5296 5296 5298 5302 5309 5318 5327 5338 5348 5357 5364 5373 5386 5398 5403 5408 5414 5421 5427 5435 5443 5450 5456 5461 5467 5472 5476 5479 5482 5488 5493 5496 5498 5501 5508 5508 5508 5509 5509 5511 5517 5527 5531 5533 5534 5538 5541 5542
5305 5300 5297 5295 5293 5291 5288 5284 5283 5286 5294 5306 5319 5331 5342 5352 5360 5370 5379 5388 5392 5399 5407 5415 5423 5428 5436 5445 5451 5455 5459 5463 5468 5473 5475 5481 5486 5488 5489 5496 5501 5502 5501 5500 5501 5505 5509 5516 5523 5527 5529 5533 5534 5537
5306 5301 5298 5295 5293 5289 5283 5273 5266 5269 5282 5299 5315 5328 5338 5345 5357 5369 5376 5383 5389 5396 5400 5410 5419 5424 5430 5436 5443 5448 5453 5456 5461 5464 5469 5473 5477 5481 5486 5489 5495 5497 5497 5496 5495 5498 5501 5506 5514 5520 5523 5526 5528 5531
5310 5307 5302 5298 5296 5294 5288 5279 5268 5266 5282 5299 5314 5327 5337 5347 5360 5370 5377 5382 5387 5390 5395 5407 5416 5422 5426 5432 5437 5444 5448 5451 5455 5461 5463 5463 5471 5476 5479 5482 5486 5490 5489 5490 5490 5493 5494 5498 5505 5510 5514 5518 5521 5523
5316 5311 5307 5307 5305 5302 5298 5295 5293 5296 5302 5312 5321 5332 5342 5352 5363 5371 5376 5381 5385 5390 5395 5404 5413 5419 5423 5431 5436 5440 5442 5445 5449 5454 5455 5456 5464 5471 5473 5474 5476 5479 5481 5482 5482 5483 5485 5489 5494 5499 5503 5508 5513 5516
5324 5321 5318 5317 5315 5314 5313 5312 5313 5317 5322 5329 5335 5341 5349 5358 5364 5371 5376 5383 5386 5392 5398 5404 5414 5419 5423 5428 5432 5436 5439 5442 5444 5447 5447 5450 5461 5464 5465 5466 5467 5469 5472 5475 5476 5477 5478 5481 5485 5489 5494 5498 5502 5506
5333 5331 5329 5329 5327 5326 5327 5327 5329 5334 5337 5341 5346 5351 5356 5362 5366 5371 5378 5384 5389 5396 5402 5408 5413 5417 5422 5426 5430 5432 5435 5438 5441 5441 5442 5448 5452 5453 5454 5455 5458 5460 5463 5466 5469 5471 5473 5475 5478 5482 5486 5489 5493 5497
5341 5340 5339 5338 5338 5338 5338 5340 5341 5344 5350 5353 5356 5359 5363 5367 5372 5377 5384 5389 5395 5398 5403 5407 5412 5416 5420 5424 5427 5430 5433 5434 5434 5435 5438 5440 5441 5442 5444 5446 5448 5452 5455 5458 5461 5464 5467 5468 5470 5474 5478 5480 5484 5487
5348 5348 5347 5347 5347 5348 5349 5350 5351 5353 5355 5358 5362 5366 5369 5373 5377 5382 5388 5392 5396 5401 5404 5408 5413 5417 5420 5422 5425 5427 5427 5427 5429 5432 5434 5434 5435 5435 5437 5438 5441 5444 5448 5451 5455 5458 5461 5463 5464 5466 5470 5474 5474 5477
5353 5353 5353 5354 5355 5356 5357 5358 5359 5362 5364 5367 5370 5373 5376 5380 5384 5387 5391 5394 5398 5401 5405 5408 5412 5415 5417 5419 5420 5422 5424 5426 5429 5429 5429 5430 5430 5430 5431 5433 5435 5437 5440 5444 5447 5450 5453 5455 5455 5456 5459 5464 5466 5468
5357 5358 5359 5360 5361 5362 5363 5364 5366 5368 5371 5373 5375 5377 5380 5383 5386 5390 5393 5396 5400 5403 5406 5409 5412 5414 5415 5416 5418 5421 5422 5423 5424 5424 5424 5425 5426 5428 5428 5429 5432 5434 5437 5439 5441 5444 5447 5449 5450 5452 5453 5456 5459 5461
5361 5362 5363 5364 5366 5367 5369 5370 5371 5373 5374 5374 5376 5379 5382 5385 5388 5391 5394 5396 5399 5402 5406 5408 5410 5412 5414 5416 5417 5419 5419 5419 5420 5419 5420 5421 5422 5423 5425 5427 5428 5430 5432 5433 5434 5438 5441 5442 5444 5446 5448 5449 5451 5451
5366 5366 5367 5368 5370 5372 5373 5375 5377 5377 5378 5380 5381 5382 5385 5388 5391 5394 5396 5398 5400 5403 5406 5408 5410 5411 5412 5414 5415 5415 5416 5416 5416 5417 5417 5417 5418 5420 5422 5423 5424 5425 5427 5428 5430 5431 5433 5434 5437 5438 5440 5441 5441 5442
5368 5369 5370 5371 5372 5374 5376 5378 5381 5382 5384 5386 5388 5389 5391 5393 5395 5397 5399 5401 5403 5406 5408 5409 5409 5410 5411 5412 5412 5413 5413 5414 5415 5415 5416 5417 5417 5418 5419 5420 5421 5422 5423 5424 5425 5426 5427 5427 5429 5430 5431 5432 5431 5431
5373 5373 5373 5374 5375 5376 5378 5381 5384 5385 5387 5389 5391 5393 5395 5396 5398 5399 5402 5403 5406 5406 5407 5408 5408 5409 5409 5409 5410 5411 5411 5411 5412 5413 5413 5413 5414 5414 5415 5415 5416 5417 5417 5417 5418 5418 5419 5420 5421 5422 5422 5422 5422 5423
5378 5378 5378 5379 5379 5380 5380 5382 5385 5388 5390 5391 5393 5395 5396 5397 5398 5399 5401 5404 5404 5406 5406 5407 5407 5407 5407 5407 5406 5407 5407 5407 5407 5408 5409 5409 5409 5409 5410 5410 5410 5411 5411 5412 5412 5412 5413 5414 5414 5415 5415 5414 5414 5414
5384 5384 5384 5385 5385 5385 5387 5387 5388 5389 5391 5392 5394 5395 5397 5398 5399 5400 5400 5402 5403 5404 5404 5404 5404 5403 5403 5403 5403 5402 5402 5402 5402 5403 5402 5403 5402 5402 5402 5402 5403 5404 5404 5405 5406 5406 5406 5407 5407 5406 5406 5406 5405 5404
5391 5391 5391 5391 5391 5391 5392 5392 5393 5394 5394 5395 5396 5397 5398 5399 5399 5400 5401 5401 5401 5401 5400 5399 5399 5398 5398 5397 5397 5396 5396 5396 5396 5396 5396 5396 5396 5396 5396 5396 5396 5397 5397 5398 5398 5398 5398 5398 5397 5397 5396 5395 5393 5392
5399 5399 5398 5397 5397 5397 5397 5397 5397 5398 5398 5399 5399 5399 5399 5399 5399 5399 5398 5398 5398 5397 5396 5395 5394 5393 5392 5391 5390 5390 5390 5389 5389 5389 5388 5388 5388 5388 5388 5388 5388 5388 5388 5388 5388 5388 5388 5388 5387 5386 5385 5383 5381 5379
5402 5401 5402 5401 5401 5401 5401 5401 5401 5401 5401 5400 5400 5400 5399 5398 5398 5397 5396 5394 5393 5392 5390 5389 5388 5386 5385 5384 5383 5383 5382 5381 5381 5381 5381 5380 5380 5380 5379 5379 5379 5379 5379 5378 5378 5377 5377 5376 5375 5374 5373 5371 5369 5367
5404 5404 5404 5403 5403 5403 5402 5402 5401 5400 5400 5399 5398 5398 5396 5395 5394 5392 5390 5388 5386 5384 5382 5380 5379 5377 5376 5375 5374 5373 5372 5372 5371 5371 5371 5371 5370 5370 5370 5369 5368 5368 5367 5366 5366 5365 5365 5364 5363 5362 5361 5359 5357 5355
5404 5404 5404 5403 5402 5402 5401 5400 5399 5398 5397 5396 5395 5392 5390 5388 5386 5383 5380 5376 5373 5371 5368 5365 5363 5361 5360 5359 5358 5357 5357 5357 5357 5357 5358 5358 5358 5358 5358 5358 5357 5357 5356 5355 5355 5354 5353 5352 5351 5349 5348 5346 5344 5341
5402 5402 5402 5400 5400 5399 5397 5396 5395 5393 5391 5389 5387 5384 5381 5378 5375 5371 5367 5363 5360 5356 5353 5351 5349 5347 5346 5345 5344 5343 5343 5343 5343 5342 5343 5343 5344 5345 5345 5345 5345 5345 5345 5344 5343 5342 5341 5339 5338 5336 5335 5333 5330 5327
5399 5398 5397 5396 5395 5394 5392 5390 5387 5385 5382 5379 5376 5372 5369 5365 5362 5359 5355 5351 5348 5344 5341 5339 5337 5335 5334 5334 5333 5332 5332 5331 5331 5331 5331 5331 5331 5332 5332 5332 5332 5332 5332 5332 5331 5330 5329 5327 5325 5324 5322 5320 5318 5315
5395 5394 5393 5391 5389 5386 5384 5381 5379 5376 5373 5370 5367 5365 5362 5358 5354 5349 5345 5340 5335 5332 5329 5328 5327 5326 5325 5324 5323 5322 5321 5320 5320 5320 5320 5320 5321 5321 5321 5321 5321 5320 5320 5319 5319 5318 5317 5315 5314 5312 5310 5308 5306 5304
5390 5388 5386 5384 5381 5379 5377 5374 5372 5369 5367 5364 5361 5358 5354 5350 5345 5340 5334 5329 5325 5323 5320 5319 5318 5317 5317 5316 5316 5315 5314 5313 5311 5311 5311 5311 5311 5311 5311 5311 5311 5310 5310 5309 5308 5307 5306 5304 5302 5301 5299 5297 5295 5293
5382 5380 5378 5377 5375 5373 5372 5370 5367 5364 5362 5359 5355 5352 5347 5342 5336 5330 5325 5322 5319 5317 5315 5313 5312 5311 5310 5310 5309 5308 5307 5307 5306 5305 5304 5304 5304 5303 5303 5303 5303 5302 5301 5300 5299 5298 5296 5295 5294 5292 5291 5289 5287 5285